HLE55 EGSX-EGSX

Flight info

Callsign HLE55
Flight time N/A
Altitude 1000
Route BURNHAM ON CROUCH
Aircraft A169/L-SBGY/ACEB2

Departure

Time 2026-05-04 18:49
Airport North Weald Airfield (EGSX)

Arrival

Time N/A
Airport North Weald Airfield (EGSX)
Time Latitude Longitude Altitude Speed Heading
2026-05-04 18:45 51.72059 0.14784 325 ft 0 kts 350°
2026-05-04 18:47 51.72057 0.14821 324 ft 8 kts 120°
2026-05-04 18:48 51.72024 0.14916 324 ft 12 kts 118°
2026-05-04 18:48 51.71985 0.15030 324 ft 13 kts 119°
2026-05-04 18:48 51.71936 0.15174 324 ft 16 kts 121°
2026-05-04 18:48 51.71927 0.15317 324 ft 13 kts 33°
2026-05-04 18:49 51.72038 0.15378 403 ft 33 kts 27°
2026-05-04 18:49 51.72506 0.15596 632 ft 101 kts 19°
2026-05-04 18:49 51.73176 0.15942 1040 ft 93 kts 45°
2026-05-04 18:49 51.73512 0.16781 952 ft 94 kts 77°
2026-05-04 18:50 51.73430 0.17951 881 ft 119 kts 96°
2026-05-04 18:50 51.73199 0.19357 932 ft 139 kts 104°
2026-05-04 18:50 51.72937 0.20737 996 ft 140 kts 105°
2026-05-04 18:50 51.72606 0.22241 1018 ft 139 kts 106°
2026-05-04 18:51 51.72286 0.23709 1013 ft 140 kts 107°
2026-05-04 18:51 51.71967 0.25171 1002 ft 140 kts 106°
2026-05-04 18:51 51.71642 0.26636 1008 ft 140 kts 105°
2026-05-04 18:51 51.71312 0.28099 1007 ft 139 kts 106°
2026-05-04 18:52 51.70983 0.29553 999 ft 140 kts 107°
2026-05-04 18:52 51.70722 0.30882 1093 ft 106 kts 104°
2026-05-04 18:52 51.70574 0.31868 991 ft 81 kts 105°
2026-05-04 18:52 51.70413 0.32708 911 ft 77 kts 105°
2026-05-04 18:53 51.70213 0.33515 941 ft 78 kts 106°
2026-05-04 18:53 51.70002 0.34323 976 ft 79 kts 106°
2026-05-04 18:53 51.69792 0.35125 996 ft 79 kts 106°
2026-05-04 18:53 51.69582 0.35937 1007 ft 79 kts 106°
2026-05-04 18:54 51.69372 0.36748 1007 ft 79 kts 106°
2026-05-04 18:54 51.69165 0.37562 1004 ft 79 kts 106°
2026-05-04 18:54 51.68958 0.38377 996 ft 79 kts 106°
2026-05-04 18:54 51.68751 0.39188 997 ft 78 kts 106°
2026-05-04 18:55 51.68618 0.40028 999 ft 77 kts 99°
2026-05-04 18:55 51.68357 0.41680 996 ft 77 kts 97°
2026-05-04 18:55 51.68226 0.42505 994 ft 77 kts 98°
2026-05-04 18:56 51.68110 0.43339 995 ft 76 kts 95°
2026-05-04 18:56 51.68007 0.44174 995 ft 77 kts 95°
2026-05-04 18:56 51.67900 0.45004 993 ft 77 kts 95°
2026-05-04 18:56 51.67791 0.45840 991 ft 77 kts 95°
2026-05-04 18:57 51.67686 0.46669 995 ft 75 kts 96°
2026-05-04 18:57 51.67583 0.47491 996 ft 75 kts 95°
2026-05-04 18:57 51.67479 0.48315 991 ft 76 kts 95°
2026-05-04 18:57 51.67372 0.49145 990 ft 76 kts 95°
2026-05-04 18:58 51.67265 0.49978 990 ft 76 kts 96°
2026-05-04 18:58 51.67164 0.50810 992 ft 76 kts 95°
2026-05-04 18:58 51.67060 0.51623 988 ft 77 kts 95°
2026-05-04 18:58 51.66941 0.52467 994 ft 76 kts 96°
2026-05-04 18:59 51.66836 0.53301 997 ft 76 kts 95°
2026-05-04 18:59 51.66733 0.54132 997 ft 76 kts 96°
2026-05-04 18:59 51.66630 0.54961 996 ft 76 kts 95°
2026-05-04 18:59 51.66523 0.55797 992 ft 77 kts 96°
2026-05-04 19:00 51.66416 0.56626 997 ft 75 kts 95°
2026-05-04 19:00 51.66314 0.57453 991 ft 75 kts 95°
2026-05-04 19:00 51.66235 0.58284 986 ft 75 kts 92°
2026-05-04 19:00 51.66156 0.59116 988 ft 76 kts 92°
2026-05-04 19:01 51.66083 0.59939 998 ft 74 kts 92°
2026-05-04 19:01 51.66010 0.60763 991 ft 75 kts 92°
2026-05-04 19:01 51.66123 0.61544 986 ft 73 kts 60°
2026-05-04 19:01 51.66335 0.62276 996 ft 72 kts 63°
2026-05-04 19:02 51.66511 0.63032 994 ft 73 kts 69°
2026-05-04 19:02 51.66659 0.63804 995 ft 72 kts 69°
2026-05-04 19:02 51.66818 0.64575 988 ft 73 kts 66°
2026-05-04 19:02 51.66988 0.65325 997 ft 72 kts 67°
2026-05-04 19:03 51.67159 0.66098 994 ft 73 kts 66°
2026-05-04 19:03 51.67324 0.66864 994 ft 73 kts 68°
2026-05-04 19:03 51.67494 0.67635 998 ft 73 kts 67°
2026-05-04 19:03 51.67729 0.68342 976 ft 74 kts 45°
2026-05-04 19:04 51.68216 0.68526 982 ft 77 kts 358°
2026-05-04 19:04 51.68608 0.67976 1042 ft 75 kts 306°
2026-05-04 19:04 51.68548 0.67189 995 ft 75 kts 246°
2026-05-04 19:04 51.68126 0.66869 977 ft 65 kts 163°
2026-05-04 19:05 51.67808 0.67384 877 ft 84 kts 96°
2026-05-04 19:05 51.67560 0.68367 984 ft 96 kts 103°
2026-05-04 19:05 51.67374 0.69402 1015 ft 96 kts 103°
2026-05-04 19:05 51.67186 0.70442 1022 ft 99 kts 107°
2026-05-04 19:06 51.66833 0.71390 1034 ft 98 kts 118°
2026-05-04 19:06 51.66459 0.72300 1004 ft 99 kts 118°
2026-05-04 19:06 51.66088 0.73196 991 ft 100 kts 119°
2026-05-04 19:06 51.65705 0.74122 999 ft 99 kts 119°
2026-05-04 19:07 51.65327 0.75038 990 ft 99 kts 119°
2026-05-04 19:07 51.64957 0.75913 1089 ft 83 kts 119°
2026-05-04 19:07 51.64685 0.76551 1024 ft 62 kts 120°
2026-05-04 19:07 51.64448 0.77069 939 ft 56 kts 118°
2026-05-04 19:08 51.64204 0.77581 940 ft 59 kts 117°
2026-05-04 19:08 51.63956 0.78103 974 ft 60 kts 120°
2026-05-04 19:08 51.63698 0.78646 999 ft 61 kts 120°
2026-05-04 19:08 51.63436 0.79184 935 ft 60 kts 118°
2026-05-04 19:09 51.63175 0.79722 826 ft 61 kts 119°
2026-05-04 19:09 51.62937 0.80250 832 ft 57 kts 117°
2026-05-04 19:09 51.62786 0.80828 818 ft 58 kts 107°
2026-05-04 19:09 51.62662 0.81435 832 ft 57 kts 97°
2026-05-04 19:10 51.62788 0.81991 846 ft 54 kts 48°
2026-05-04 19:10 51.63113 0.82266 871 ft 52 kts 32°
2026-05-04 19:10 51.63458 0.82423 838 ft 59 kts
2026-05-04 19:10 51.63789 0.82014 845 ft 68 kts 308°
2026-05-04 19:11 51.63755 0.81270 856 ft 72 kts 247°
2026-05-04 19:11 51.63347 0.80916 866 ft 65 kts 176°
2026-05-04 19:11 51.62910 0.80837 820 ft 58 kts 170°
2026-05-04 19:11 51.62656 0.80957 468 ft 41 kts 109°
2026-05-04 19:12 51.62655 0.81021 11 ft 2 kts 19°